TimeEST,TemperatureF,Dew PointF,Humidity,Sea Level PressureIn,VisibilityMPH,Wind Direction,Wind SpeedMPH,Gust SpeedMPH,PrecipitationIn,Events,Conditions,WindDirDegrees,DateUTC
12:51 AM,37.0,24.1,59,30.32,10.0,West,6.9,-,N/A,,Partly Cloudy,260,2012-11-30 05:51:00
1:51 AM,32.0,25.0,75,30.34,10.0,SW,5.8,-,N/A,,Scattered Clouds,230,2012-11-30 06:51:00
2:51 AM,34.0,24.1,67,30.33,10.0,SW,4.6,-,N/A,,Scattered Clouds,230,2012-11-30 07:51:00
3:51 AM,34.0,25.0,70,30.33,10.0,South,4.6,-,N/A,,Scattered Clouds,190,2012-11-30 08:51:00
4:51 AM,33.1,24.1,70,30.33,9.0,Calm,Calm,-,N/A,,Mostly Cloudy,0,2012-11-30 09:51:00
5:51 AM,30.9,24.1,76,30.35,9.0,SSW,4.6,-,N/A,,Mostly Cloudy,210,2012-11-30 10:51:00
6:51 AM,33.1,24.1,70,30.36,9.0,Calm,Calm,-,N/A,,Mostly Cloudy,0,2012-11-30 11:51:00
7:51 AM,35.1,25.0,67,30.38,8.0,Calm,Calm,-,N/A,,Mostly Cloudy,0,2012-11-30 12:51:00
8:51 AM,39.0,27.0,62,30.40,8.0,Calm,Calm,-,N/A,,Mostly Cloudy,0,2012-11-30 13:51:00
9:51 AM,42.1,26.1,53,30.41,8.0,Calm,Calm,-,N/A,,Overcast,0,2012-11-30 14:51:00
10:51 AM,43.0,26.1,51,30.40,9.0,North,8.1,-,N/A,,Overcast,10,2012-11-30 15:51:00
11:51 AM,45.0,28.0,52,30.38,9.0,NNE,6.9,-,N/A,,Mostly Cloudy,30,2012-11-30 16:51:00
12:51 PM,46.9,27.0,46,30.38,9.0,ENE,4.6,-,N/A,,Overcast,70,2012-11-30 17:51:00
1:51 PM,46.9,27.0,46,30.38,10.0,Variable,3.5,-,N/A,,Overcast,0,2012-11-30 18:51:00
2:51 PM,46.9,26.1,44,30.38,10.0,East,4.6,-,N/A,,Mostly Cloudy,100,2012-11-30 19:51:00
3:51 PM,46.9,28.9,50,30.37,10.0,ESE,6.9,-,N/A,,Mostly Cloudy,110,2012-11-30 20:51:00
4:51 PM,46.4,30.2,53,30.38,10.0,East,5.8,-,N/A,,Overcast,90,2012-11-30 21:51:00
5:51 PM,45.0,35.1,68,30.40,10.0,East,5.8,-,N/A,,Overcast,80,2012-11-30 22:51:00
6:51 PM,45.0,37.0,74,30.41,10.0,ENE,6.9,-,N/A,,Overcast,60,2012-11-30 23:51:00
7:51 PM,42.1,34.0,73,30.43,10.0,NNE,9.2,-,N/A,,Overcast,20,2012-12-01 00:51:00
8:51 PM,43.0,35.1,74,30.43,10.0,NE,9.2,-,N/A,,Overcast,50,2012-12-01 01:51:00
9:51 PM,41.0,33.1,73,30.43,10.0,NE,10.4,-,N/A,,Overcast,50,2012-12-01 02:51:00
10:51 PM,39.9,32.0,73,30.44,10.0,NE,11.5,-,N/A,,Overcast,40,2012-12-01 03:51:00
11:51 PM,39.9,33.1,77,30.45,10.0,NE,11.5,-,N/A,,Mostly Cloudy,40,2012-12-01 04:51:00